Powrót do katalogu

STARLINK-5665

AktywnyŁącznośćVLEO
NORAD 55361·PAYLOAD·🇺🇸 United States

Wystrzelony Jan 26, 2023 z Cape Canaveral Space Force Station

Loading…

Następne Przeloty (najbliższe 24 godziny)

TLE

ŚwieżeSource: CelesTrak SupGP

Epoka: Sep 15, 2026, 02:36 UTC

1 55361C 23013AG  26258.10881944  .00025232  00000+0  91355-3 0  2584
2 55361  43.0034 298.8622 0001793 279.3543  83.4778 15.27578138    11

Śledź STARLINK-5665 w czasie rzeczywistym z AllMySat

Download on the App Store